Wind_Speed
16 16 17 19 20 21 23 23 24 28 27 41 28 34 51 44 45 47 43 50 50 47 41 38 39 41 43 46 49 52 54 54
15 17 20 21 23 23 26 24 30 29 28 40 42 45 46 47 49 48 52 55 49 41 41 44 47 50 53 55 56 57 57 61
15 16 18 17 21 24 25 26 25 33 35 42 45 47 50 54 54 53 50 48 47 48 50 53 55 58 58 58 59 61 66 69
16 18 19 21 25 28 29 30 30 35 39 43 46 50 55 58 58 55 51 51 52 53 54 56 57 58 59 62 65 68 72 76
18 17 19 23 26 27 29 31 36 41 45 46 48 50 55 51 51 51 53 53 54 56 57 58 60 61 64 68 72 76 79 82
18 19 23 26 27 29 32 34 34 34 35 40 44 46 50 53 54 55 55 56 58 58 60 61 63 66 69 74 78 82 85 89
18 22 24 24 24 24 23 26 29 31 35 37 42 45 50 53 55 57 59 59 59 62 62 64 67 70 75 80 85 89 92 95
16 16 15 16 17 20 23 26 30 34 36 39 42 46 50 54 56 57 58 59 61 62 64 67 71 75 81 86 90 93 95 96
11 13 16 17 20 24 27 31 34 37 40 43 46 48 50 53 56 59 60 61 62 64 67 70 76 81 86 90 93 95 96 98
15 17 20 22 25 29 32 35 38 41 43 46 48 50 53 55 58 60 60 61 63 65 69 75 81 86 90 92 93 95 98 101
20 22 25 28 31 34 36 39 41 43 46 48 50 53 57 58 61 61 61 63 65 70 75 81 85 89 90 91 94 98 100 86
25 27 30 32 35 38 40 43 44 46 49 51 54 57 57 60 62 62 63 66 70 75 80 84 86 88 90 93 96 97 80 68
30 32 35 37 39 41 43 46 48 50 52 55 57 58 60 63 64 64 66 70 75 80 83 84 87 88 92 96 92 75 64 53
35 37 39 41 44 45 46 49 51 52 55 58 59 60 62 64 65 67 70 75 79 82 83 85 87 91 95 87 71 61 50 41
40 42 44 46 47 48 50 51 53 54 57 59 60 62 63 65 66 70 74 78 79 82 83 86 90 93 84 70 60 50 41 37
45 46 47 49 50 52 53 53 55 56 58 60 61 63 64 65 69 73 76 78 81 81 85 89 91 81 71 61 51 42 36 37
48 48 50 52 53 54 54 55 56 58 60 61 62 62 64 68 72 75 76 79 80 83 87 89 80 71 63 52 44 37 36 37
49 50 52 54 55 55 55 56 57 59 60 61 61 64 68 71 75 75 79 80 82 86 87 79 71 66 55 45 39 35 35 35
49 51 54 56 55 55 55 57 58 59 60 61 65 68 71 75 76 77 80 81 85 86 79 70 68 58 47 40 35 33 33 35
Wind_Direction
259 266 271 273 276 280 277 277 280 280 277 271 269 304 311 310 309 309 309 315 315 308 302 300 298 297 297 298 299 299 299 298
255 257 263 265 272 276 277 276 269 272 276 294 305 304 311 308 306 310 312 313 311 307 307 306 306 305 305 305 303 301 300 300
257 266 273 277 276 275 274 281 286 295 297 299 304 304 303 306 308 310 312 312 312 311 308 306 306 304 302 301 301 300 301 299
275 281 286 284 285 282 279 287 292 294 298 303 303 305 308 309 308 309 310 311 310 308 305 303 301 300 301 301 301 301 302 302
276 278 282 278 279 278 284 290 293 300 297 303 306 303 303 305 305 306 307 308 306 303 301 301 301 301 301 303 303 305 306 305
268 275 282 283 284 283 285 294 296 300 303 303 301 301 306 308 308 307 305 303 301 301 302 302 303 303 303 305 307 307 306 305
269 276 282 289 291 293 298 301 302 305 305 308 311 311 310 308 305 302 301 300 301 302 304 303 302 304 307 308 308 307 306 306
281 290 292 295 297 300 302 303 304 305 308 311 310 309 307 306 305 303 302 301 303 304 304 304 307 309 310 309 309 308 309 309
287 293 297 301 305 307 305 304 305 305 306 306 304 303 304 305 304 303 304 305 305 305 306 308 309 309 309 311 311 311 311 310
296 298 299 301 302 301 302 302 302 302 301 299 300 302 305 308 308 306 305 305 304 306 308 309 309 311 312 311 311 311 311 310
294 298 299 299 299 299 299 300 300 300 301 303 306 307 307 310 309 306 305 305 308 308 309 311 312 312 312 312 312 311 310 309
294 295 296 297 299 300 300 300 301 302 305 308 307 306 309 309 308 307 307 308 308 310 311 311 311 312 313 314 313 311 310 307
293 293 294 295 296 298 300 302 305 305 307 306 306 308 308 308 309 308 308 309 310 310 311 312 313 314 315 314 312 311 308 304
295 294 294 294 296 300 303 304 305 307 306 306 306 307 307 309 309 310 309 310 311 312 314 315 316 316 315 313 313 310 305 300
298 298 298 298 298 299 301 303 305 306 305 305 306 307 308 309 309 309 311 312 313 315 316 317 318 317 315 315 313 309 304 300
299 299 297 298 299 299 299 302 304 304 304 305 306 308 308 308 309 311 314 315 317 317 319 319 317 316 317 315 312 307 303 302
298 297 297 299 300 300 299 302 304 304 306 306 307 307 308 310 313 316 316 318 318 320 320 319 317 318 317 313 309 305 303 303
296 296 297 299 300 301 300 302 304 306 305 306 307 308 309 312 315 317 319 321 321 321 319 318 319 320 315 311 307 304 304 305
296 297 298 300 301 301 301 305 306 305 305 308 308 308 310 313 315 317 322 322 322 320 319 319 321 318 313 309 305 303 303 306
Height
5807 5807 5807 5806 5804 5804 5803 5803 5801 5799 5796 5793 5786 5782 5782 5779 5777 5772 5767 5761 5756 5752 5748 5744 5740 5736 5732 5727 5724 5720 5716 5713
5806 5805 5804 5803 5802 5800 5799 5798 5795 5790 5784 5786 5780 5778 5775 5772 5767 5761 5755 5751 5747 5743 5738 5733 5728 5723 5718 5714 5711 5706 5701 5696
5804 5802 5801 5799 5797 5795 5792 5791 5790 5787 5782 5778 5774 5772 5767 5762 5756 5750 5746 5740 5734 5729 5724 5719 5715 5711 5708 5703 5698 5693 5685 5679
5798 5797 5795 5794 5791 5789 5787 5784 5782 5778 5775 5772 5769 5762 5756 5751 5745 5740 5735 5730 5725 5720 5715 5711 5706 5701 5695 5689 5683 5676 5669 5660
5794 5792 5790 5788 5786 5783 5781 5779 5775 5773 5769 5764 5759 5755 5750 5744 5739 5733 5727 5721 5716 5711 5706 5700 5694 5688 5681 5673 5666 5657 5648 5639
5788 5786 5784 5782 5780 5778 5776 5774 5770 5766 5761 5757 5753 5748 5742 5735 5728 5722 5717 5711 5706 5700 5694 5688 5681 5673 5665 5656 5647 5637 5627 5618
5782 5780 5779 5777 5775 5772 5770 5766 5763 5759 5755 5751 5745 5739 5733 5727 5721 5715 5708 5702 5695 5688 5682 5674 5666 5658 5648 5638 5627 5616 5605 5594
5777 5776 5774 5772 5770 5767 5764 5761 5756 5752 5747 5742 5737 5731 5725 5718 5712 5704 5698 5691 5684 5676 5668 5659 5649 5639 5629 5619 5608 5596 5584 5570
5774 5772 5770 5768 5764 5761 5757 5753 5748 5744 5739 5734 5728 5723 5716 5709 5701 5693 5685 5677 5670 5662 5653 5644 5634 5623 5612 5600 5587 5573 5562 5548
5769 5767 5764 5761 5758 5754 5750 5745 5740 5736 5731 5726 5720 5713 5705 5697 5689 5681 5673 5665 5657 5649 5639 5628 5617 5606 5594 5581 5568 5554 5539 5526
5763 5760 5757 5754 5751 5746 5741 5737 5733 5727 5721 5715 5707 5699 5693 5685 5677 5668 5660 5652 5643 5634 5624 5612 5600 5588 5576 5563 5548 5533 5519 5504
5757 5753 5750 5746 5742 5737 5733 5728 5723 5717 5710 5702 5695 5688 5680 5673 5664 5655 5646 5637 5627 5618 5607 5596 5585 5571 5556 5541 5525 5511 5497 5485
5750 5746 5742 5738 5734 5729 5724 5717 5711 5704 5697 5690 5683 5675 5667 5659 5650 5641 5631 5622 5613 5603 5591 5579 5565 5552 5536 5520 5504 5490 5479 5471
5742 5738 5734 5728 5723 5718 5712 5706 5699 5692 5685 5677 5669 5662 5654 5646 5637 5627 5618 5609 5598 5586 5573 5560 5547 5531 5516 5500 5487 5475 5466 5459
5733 5728 5723 5717 5712 5707 5701 5694 5688 5681 5673 5665 5658 5650 5642 5633 5624 5615 5604 5593 5581 5568 5556 5542 5526 5510 5495 5481 5469 5461 5454 5450
5723 5717 5712 5706 5702 5696 5689 5683 5676 5668 5661 5654 5646 5638 5629 5620 5610 5600 5588 5576 5564 5551 5537 5523 5507 5492 5479 5466 5457 5450 5445 5440
5712 5706 5701 5695 5690 5683 5677 5671 5664 5657 5649 5641 5633 5624 5615 5605 5594 5584 5572 5560 5547 5533 5518 5504 5489 5477 5465 5454 5446 5440 5436 5431
5701 5695 5689 5683 5678 5672 5665 5658 5651 5643 5636 5628 5619 5610 5600 5589 5579 5568 5557 5543 5530 5516 5501 5486 5473 5461 5451 5443 5436 5432 5427 5422
5689 5683 5677 5671 5665 5659 5652 5645 5637 5630 5623 5614 5605 5595 5585 5575 5564 5552 5540 5527 5514 5499 5484 5471 5459 5449 5440 5433 5428 5423 5419 5414